Location: Munkebjergskolens Observatorium
(55.3864°N, 10.3987°E)
Time: 05:01:27
(UTC+02:00)

QB50P2 - Pass Details

Date: 08 April 2023
Orbit: 581 x 596 km, 98.0° (Epoch: 31 May)

Event Time Altitude Azimuth Distance (km) Brightness Sun altitude
Rises 02:42:15 0° 20° (NNE) 2,834 ? -25.3°
Reaches altitude 10° 02:44:33 10° 29° (NNE) 1,925 ? -25.2°
Maximum altitude 02:48:26 37° 97° (E) 923 ? -25.0°
Enters shadow 02:48:33 37° 101° (E) 924 ? -24.9°
